Regional Weather Roundup
Issued by NWS

Home | Current Version | Previous Version | Text Only | Print | Product List | Glossary On
Versions: 1 2 3 4 5 6 7 8 9 10 11 12 13 14 15 16 17 18 19 20 21 22 23 24 25 26 27 28 29 30 31 32 33 34 35 36 37 38 39 40 41 42 43 44 45 46 47 48 49 50
000
ASUS43 KDTX 251001
RWRMI
MICHIGAN HOURLY REGIONAL WEATHER ROUNDUP
NATIONAL WEATHER SERVICE DETROIT/PONTIAC MI
500 AM EST THU DEC 25 2014

NOTE: "FAIR" INDICATES FEW OR NO CLOUDS BELOW 12,000 FEET WITH NO
SIGNIFICANT WEATHER AND/OR OBSTRUCTION TO VISIBILITY.

MIZ047>049-052>055-059>063-066>070-074>076-081>083-251100-
SOUTHEAST LOWER MICHIGAN

CITY           SKY/WX    TMP DP  RH WIND       PRES   REMARKS
ADRIAN         CLOUDY    36  33  89 W12G22    29.69R WCI  28
ALMA           CLOUDY    35  33  94 W12G22    29.61R WCI  26
ANN ARBOR      CLOUDY    38  35  89 W14       29.65R WCI  30
BAD AXE        CLOUDY    34  34 100 W15G21    29.54R WCI  24
CARO           CLOUDY    35  33  91 W13G20    29.57R WCI  27
DETROIT CITY   LGT RAIN  39  35  86 W17       29.64R WCI  30
DETROIT        CLOUDY    38  35  89 SW20      29.66R WCI  28
FLINT          CLOUDY    38  34  85 W13       29.61R WCI  30
GROSSE ILE     CLOUDY    39  34  81 SW14G24   29.65R WCI  31
HILLSDALE      CLOUDY    36  36  99 W9G20     29.67R WCI  29
HOWELL         CLOUDY    35  34  96 W14G20    29.63R WCI  26

CITY           SKY/WX    TMP DP  RH WIND       PRES   REMARKS
JACKSON        CLOUDY    36  33  89 W12G21    29.66R WCI  28
LAMBERTVILLE   CLOUDY    37  34  87 SW12G18   29.70R WCI  30
LANSING        LGT RAIN  35  33  92 W14       29.64R WCI  26
LAPEER         CLOUDY    36  34  94 W10G22    29.59R WCI  28
MASON          MIX PCPN  34  32  93 W9        29.64R WCI  27
MONROE         CLOUDY    37  36  93 W16G24    29.66R WCI  28
MT. CLEMENS    CLOUDY    39  39  99 W13G20    29.60R WCI  31
PONTIAC        CLOUDY    36  33  89 W18G28    29.60R WCI  26
PORT HOPE        N/A     35  32  88 W10G18    29.49R WCI  27
PORT HURON     CLOUDY    37  36  93 SW8       29.60R WCI  31
TRI CITIES     CLOUDY    36  32  85 W14       29.59R WCI  27
TROY           CLOUDY    40  35  82 W12G21    29.64R WCI  33
SAGINAW HB     CLOUDY    36  36 100 W14G20    29.58R WCI  27
$$
MIZ043>046-050>051-056>058-064>065-071>073-077>080-251100-
SOUTHWEST LOWER MICHIGAN

CITY           SKY/WX    TMP DP  RH WIND       PRES   REMARKS
BATTLE CREEK   CLOUDY    37  32  82 W20G25    29.68R WCI  27
BENTON HARBOR  CLOUDY    37  33  85 W16       29.74R WCI  28
BIG RAPIDS     CLOUDY    34  33  96 W13       29.60R WCI  25
COLDWATER      CLOUDY    36  33  92 W20G25    29.70R WCI  25
FREMONT        CLOUDY    35  32  90 W10       29.64R WCI  27
HOLLAND        CLOUDY    39  31  72 W18G25    29.69R WCI  30
GRAND RAPIDS   CLOUDY    36  32  85 W15       29.66R WCI  27
IONIA          RAIN      37  34  90 W17G23    29.63R WCI  27
KALAMAZOO      CLOUDY    37  32  82 W15       29.70R WCI  28
MARSHALL       CLOUDY    35  32  91 W16G22    29.66R WCI  25
MOUNT PLEASANT CLOUDY    34  32  91 W8G22     29.59R WCI  28
MUSKEGON       CLOUDY    38  31  76 W14G25    29.67R WCI  30
SOUTH HAVEN    CLOUDY    39  33  78 W15G24    29.72R WCI  30
$$
MIZ016>042-251100-
NORTHERN LOWER MICHIGAN

CITY           SKY/WX    TMP DP  RH WIND       PRES   REMARKS
ALPENA         CLOUDY    34  32  92 W10G21    29.45R WCI  26
BEAVER ISLAND  CLOUDY    34  31  88 W14       29.50R WCI  25
BELLAIRE       CLOUDY    36  31  82 W9G16     29.54R WCI  29
CADILLAC       LGT SNOW  32  30  93 W14       29.54R WCI  22
CHARLEVOIX     CLOUDY    35  31  87 W23G30    29.54R WCI  23
FRANKFORT      CLOUDY    35  31  84 W14G23    29.59R WCI  26
GAYLORD        LGT SNOW  31  30  96 W13       29.47R FOG     WCI  21
GRAYLING       LGT SNOW  33  33 100 W8        29.51R WCI  26
HARBOR SPRINGS CLOUDY    34  31  88 W10G21    29.48R WCI  26
HOUGHTON LAKE  LGT SNOW  32  30  92 W13       29.52R FOG     WCI  22
MANISTEE       CLOUDY    36  27  69 W17       29.61R WCI  25
OSCODA         CLOUDY    34  32  92 W14G20    29.48R WCI  25
PELLSTON       CLOUDY    34  30  85 W17       29.47R WCI  23
ROGERS CITY    CLOUDY    33  33  99 W14G20    29.45R WCI  23
TRAVERSE CITY  CLOUDY    36  30  79 W15       29.55R WCI  27
$$
MIZ007>008-015-251100-
EASTERN UPPER MICHIGAN

CITY           SKY/WX    TMP DP  RH WIND       PRES   REMARKS
KINROSS        CLOUDY    34  34 100 W16       29.39R WCI  23
MACKINAC ISLAN CLOUDY    33  33 100 W21G28    29.44R WCI  21
NEWBERRY       CLOUDY    32  31  96 W10       29.44R WCI  24
S. S. MARIE    CLOUDY    33  30  88 W17G25    29.37F WCI  22
MUNISING         N/A     36  28  73 NW13      29.49R WCI  27
$$
MIZ004>006-011>014-085-251100-
CENTRAL UPPER MICHIGAN

CITY           SKY/WX    TMP DP  RH WIND       PRES   REMARKS
MANISTIQUE     CLOUDY    33  31  91 W13G20    29.50R WCI  24
ESCANABA       MOCLDY    32  27  80 W10       29.53R WCI  24
MENOMINEE      MOCLDY    32  28  86 W6        29.58R WCI  26
SAWYER-GWINN   CLOUDY    31  29  92 W5        29.49R WCI  26
$$
MIZ001>003-009>011-084-251100-
WESTERN UPPER MICHIGAN

CITY           SKY/WX    TMP DP  RH WIND       PRES   REMARKS
IRON MOUNTAIN  CLOUDY    32  28  85 W7        29.53R WCI  26
HOUGHTON       LGT SNOW  33  30  88 W17       29.47R FOG     WCI  22
COPPER HARBOR    N/A     35  29  78 VRB3      29.47R
IRONWOOD       CLOUDY    30  28  93 SW10      29.51S WCI  21
$$

ABBREVIATIONS USED IN REMARKS
   TC - TEMPERATURE IN CELSIUS
  WCI - WIND CHILL INDEX
   HX - HEAT INDEX
  VSB - VISIBILITY




USA.gov is the U.S. government's official web portal to all federal, state and local government web resources and services.